,,,PA_Meas_PMT16A,,PR_Meas_QMR101_102,,RH_Meas_QMH101,,SR_Meas_QMS101,,TA_Meas_QMH101,,GenWind,,GenWind,
date,time,status,PA,status,PR,status,RH,status,SR,status,TA,status,DirAvg,status,SpdAvg,
2011-07-17, 00:00:04,VALID,1011.858,VALID,0.0,VALID,104.0,VALID,0.0,VALID,23.306,VALID,150.0,VALID,2.037,
2011-07-17, 00:01:04,VALID,1011.836,VALID,0.0,VALID,104.0,VALID,0.0,VALID,23.306,VALID,146.0,VALID,1.67,
2011-07-17, 00:02:04,VALID,1011.839,VALID,0.0,VALID,104.0,VALID,0.0,VALID,23.306,VALID,164.0,VALID,1.487,
2011-07-17, 00:03:04,VALID,1011.81,VALID,0.0,VALID,104.0,VALID,0.0,VALID,23.304,VALID,155.0,VALID,1.395,
2011-07-17, 00:04:04,VALID,1011.795,VALID,0.0,VALID,104.0,VALID,0.0,VALID,23.304,VALID,141.0,VALID,1.152,
2011-07-17, 00:05:04,VALID,1011.791,VALID,0.5,VALID,104.0,VALID,0.0,VALID,23.285,VALID,154.0,VALID,0.973,
2011-07-17, 00:06:04,VALID,1011.8,VALID,0.0,VALID,104.0,VALID,0.106,VALID,23.304,VALID,177.0,VALID,1.146,
2011-07-17, 00:07:04,VALID,1011.78,VALID,0.0,VALID,104.0,VALID,0.0,VALID,23.285,VALID,152.0,VALID,1.975,
2011-07-17, 00:08:04,VALID,1011.811,VALID,0.0,VALID,104.0,VALID,0.0,VALID,23.265,VALID,155.0,VALID,1.315,
2011-07-17, 00:09:04,VALID,1011.831,VALID,0.0,VALID,104.0,VALID,0.0,VALID,23.265,VALID,159.0,VALID,1.127,
2011-07-17, 00:10:04,VALID,1011.831,VALID,0.0,VALID,104.0,VALID,0.0,VALID,23.304,VALID,171.0,VALID,1.611,
2011-07-17, 00:11:04,VALID,1011.855,VALID,0.0,VALID,104.0,VALID,0.0,VALID,23.306,VALID,159.0,VALID,1.257,
2011-07-17, 00:12:04,VALID,1011.837,VALID,0.0,VALID,104.0,VALID,0.106,VALID,23.285,VALID,204.0,VALID,1.484,
2011-07-17, 00:13:04,VALID,1011.824,VALID,0.0,VALID,104.0,VALID,0.0,VALID,23.285,VALID,201.0,VALID,1.311,
2011-07-17, 00:14:04,VALID,1011.814,VALID,0.0,VALID,104.0,VALID,0.0,VALID,23.285,VALID,177.0,VALID,0.591,
2011-07-17, 00:15:04,VALID,1011.79,VALID,0.0,VALID,104.0,VALID,0.106,VALID,23.304,VALID,190.0,VALID,0.84,
2011-07-17, 00:16:04,VALID,1011.758,VALID,0.0,VALID,104.0,VALID,0.106,VALID,23.285,VALID,181.0,VALID,1.48,
2011-07-17, 00:17:04,VALID,1011.725,VALID,0.0,VALID,104.0,VALID,0.0,VALID,23.285,VALID,171.0,VALID,1.343,
2011-07-17, 00:18:04,VALID,1011.716,VALID,0.0,VALID,104.0,VALID,0.0,VALID,23.285,VALID,150.0,VALID,1.4,
2011-07-17, 00:19:04,VALID,1011.727,VALID,0.0,VALID,104.0,VALID,0.106,VALID,23.285,VALID,172.0,VALID,0.82,
2011-07-17, 00:20:04,VALID,1011.703,VALID,0.0,VALID,104.0,VALID,0.0,VALID,23.324,VALID,164.0,VALID,0.805,
2011-07-17, 00:21:04,VALID,1011.702,VALID,0.0,VALID,104.0,VALID,0.0,VALID,23.304,VALID,196.0,VALID,0.683,
2011-07-17, 00:22:04,VALID,1011.721,VALID,0.0,VALID,104.0,VALID,0.0,VALID,23.304,VALID,205.0,VALID,0.654,
2011-07-17, 00:23:04,VALID,1011.719,VALID,0.0,VALID,104.0,VALID,0.0,VALID,23.304,VALID,197.0,VALID,0.787,
2011-07-17, 00:24:04,VALID,1011.688,VALID,0.0,VALID,104.0,VALID,0.106,VALID,23.324,VALID,189.0,VALID,0.472,
2011-07-17, 00:25:04,VALID,1011.711,VALID,0.0,VALID,104.0,VALID,0.0,VALID,23.324,VALID,215.0,VALID,0.194,
2011-07-17, 00:26:04,VALID,1011.654,VALID,0.0,VALID,104.0,VALID,0.106,VALID,23.363,VALID,188.0,VALID,0.471,
2011-07-17, 00:27:04,VALID,1011.658,VALID,0.0,VALID,104.0,VALID,0.0,VALID,23.343,VALID,180.0,VALID,0.678,
2011-07-17, 00:28:04,VALID,1011.632,VALID,0.0,VALID,104.0,VALID,0.0,VALID,23.363,VALID,180.0,VALID,1.198,
2011-07-17, 00:29:04,VALID,1011.64,VALID,0.0,VALID,104.0,VALID,0.106,VALID,23.363,VALID,153.0,VALID,0.873,
2011-07-17, 00:30:04,VALID,1011.617,VALID,0.0,VALID,104.0,VALID,0.0,VALID,23.363,VALID,186.0,VALID,0.695,
2011-07-17, 00:31:04,VALID,1011.634,VALID,0.0,VALID,104.0,VALID,0.0,VALID,23.343,VALID,198.0,VALID,0.898,
2011-07-17, 00:32:04,VALID,1011.625,VALID,0.0,VALID,104.0,VALID,0.0,VALID,23.382,VALID,188.0,VALID,0.613,
2011-07-17, 00:33:04,VALID,1011.611,VALID,0.0,VALID,104.0,VALID,0.0,VALID,23.361,VALID,178.0,VALID,0.84,
2011-07-17, 00:34:04,VALID,1011.594,VALID,0.0,VALID,104.0,VALID,0.0,VALID,23.382,VALID,177.0,VALID,0.752,
2011-07-17, 00:35:04,VALID,1011.561,VALID,0.0,VALID,104.0,VALID,0.0,VALID,23.361,VALID,191.0,VALID,0.779,
2011-07-17, 00:36:04,VALID,1011.59,VALID,0.0,VALID,104.0,VALID,0.0,VALID,23.402,VALID,181.0,VALID,0.504,
2011-07-17, 00:37:04,VALID,1011.555,VALID,0.0,VALID,104.0,VALID,0.0,VALID,23.38,VALID,189.0,VALID,1.325,
2011-07-17, 00:38:04,VALID,1011.55,VALID,0.0,VALID,104.0,VALID,0.0,VALID,23.402,VALID,174.0,VALID,1.198,
2011-07-17, 00:39:04,VALID,1011.568,VALID,0.0,VALID,104.0,VALID,0.106,VALID,23.38,VALID,186.0,VALID,0.85,
2011-07-17, 00:40:04,VALID,1011.54,VALID,0.0,VALID,104.0,VALID,0.0,VALID,23.38,VALID,178.0,VALID,0.778,
2011-07-17, 00:41:04,VALID,1011.538,VALID,0.0,VALID,104.0,VALID,0.106,VALID,23.38,VALID,210.0,VALID,0.452,
2011-07-17, 00:42:04,VALID,1011.555,VALID,0.0,VALID,104.0,VALID,0.106,VALID,23.38,VALID,223.0,VALID,0.895,
2011-07-17, 00:43:04,VALID,1011.53,VALID,0.0,VALID,104.0,VALID,0.0,VALID,23.38,VALID,188.0,VALID,0.977,
2011-07-17, 00:44:04,VALID,1011.512,VALID,0.0,VALID,104.0,VALID,0.0,VALID,23.402,VALID,189.0,VALID,1.064,
2011-07-17, 00:45:04,VALID,1011.482,VALID,0.0,VALID,104.0,VALID,0.0,VALID,23.38,VALID,189.0,VALID,1.093,
2011-07-17, 00:46:04,VALID,1011.483,VALID,0.0,VALID,104.0,VALID,0.0,VALID,23.421,VALID,191.0,VALID,1.048,
2011-07-17, 00:47:04,VALID,1011.491,VALID,0.0,VALID,104.0,VALID,0.106,VALID,23.419,VALID,195.0,VALID,0.676,
2011-07-17, 00:48:04,VALID,1011.525,VALID,0.0,VALID,104.0,VALID,0.0,VALID,23.4,VALID,194.0,VALID,0.579,
2011-07-17, 00:49:04,VALID,1011.501,VALID,0.0,VALID,104.0,VALID,0.106,VALID,23.421,VALID,187.0,VALID,0.718,
2011-07-17, 00:50:04,VALID,1011.475,VALID,0.0,VALID,104.0,VALID,0.0,VALID,23.402,VALID,184.0,VALID,0.966,
2011-07-17, 00:51:04,VALID,1011.497,VALID,0.0,VALID,104.0,VALID,0.0,VALID,23.419,VALID,188.0,VALID,0.327,
2011-07-17, 00:52:04,VALID,1011.476,VALID,0.0,VALID,104.0,VALID,0.0,VALID,23.419,VALID,195.0,VALID,0.798,
2011-07-17, 00:53:04,VALID,1011.451,VALID,0.0,VALID,104.0,VALID,0.0,VALID,23.421,VALID,216.0,VALID,0.671,
2011-07-17, 00:54:04,VALID,1011.456,VALID,0.0,VALID,104.0,VALID,0.0,VALID,23.441,VALID,208.0,VALID,0.568,
2011-07-17, 00:55:04,VALID,1011.429,VALID,0.0,VALID,104.0,VALID,0.0,VALID,23.419,VALID,192.0,VALID,0.666,
2011-07-17, 00:56:04,VALID,1011.405,VALID,0.0,VALID,104.0,VALID,0.106,VALID,23.439,VALID,190.0,VALID,0.636,
2011-07-17, 00:57:04,VALID,1011.417,VALID,0.0,VALID,104.0,VALID,0.106,VALID,23.439,VALID,199.0,VALID,0.715,
2011-07-17, 00:58:04,VALID,1011.399,VALID,0.0,VALID,104.0,VALID,0.0,VALID,23.46,VALID,198.0,VALID,0.448,
2011-07-17, 00:59:04,VALID,1011.376,VALID,0.0,VALID,104.0,VALID,0.0,VALID,23.48,VALID,201.0,VALID,0.767,
2011-07-17, 01:00:04,VALID,1011.391,VALID,0.0,VALID,104.0,VALID,0.0,VALID,23.48,VALID,193.0,VALID,0.786,
2011-07-17, 01:01:04,VALID,1011.337,VALID,0.0,VALID,104.0,VALID,0.0,VALID,23.48,VALID,202.0,VALID,1.749,
2011-07-17, 01:02:04,VALID,1011.33,VALID,0.0,VALID,104.0,VALID,0.106,VALID,23.478,VALID,215.0,VALID,1.587,
2011-07-17, 01:03:04,VALID,1011.281,VALID,0.0,VALID,104.0,VALID,0.0,VALID,23.497,VALID,237.0,VALID,1.224,
2011-07-17, 01:04:04,VALID,1011.303,VALID,0.0,VALID,104.0,VALID,0.0,VALID,23.536,VALID,211.0,VALID,1.109,
2011-07-17, 01:05:04,VALID,1011.271,VALID,0.0,VALID,104.0,VALID,0.0,VALID,23.517,VALID,209.0,VALID,1.214,
2011-07-17, 01:06:04,VALID,1011.238,VALID,0.0,VALID,104.0,VALID,0.0,VALID,23.538,VALID,202.0,VALID,1.43,
2011-07-17, 01:07:04,VALID,1011.224,VALID,0.0,VALID,104.0,VALID,0.106,VALID,23.538,VALID,233.0,VALID,1.192,
2011-07-17, 01:08:04,VALID,1011.189,VALID,0.0,VALID,104.0,VALID,0.0,VALID,23.538,VALID,204.0,VALID,1.077,
2011-07-17, 01:09:04,VALID,1011.153,VALID,0.0,VALID,103.924,VALID,0.0,VALID,23.497,VALID,214.0,VALID,0.914,
2011-07-17, 01:10:04,VALID,1011.147,VALID,0.0,VALID,103.87,VALID,0.0,VALID,23.499,VALID,225.0,VALID,0.452,
2011-07-17, 01:11:04,VALID,1011.141,VALID,0.0,VALID,103.802,VALID,0.0,VALID,23.499,VALID,225.0,VALID,0.301,
2011-07-17, 01:12:04,VALID,1011.112,VALID,0.0,VALID,103.802,VALID,0.0,VALID,23.478,VALID,201.0,VALID,0.4,
2011-07-17, 01:13:04,VALID,1011.094,VALID,0.0,VALID,103.848,VALID,0.0,VALID,23.519,VALID,197.0,VALID,0.462,
2011-07-17, 01:14:04,VALID,1011.103,VALID,0.0,VALID,103.886,VALID,0.0,VALID,23.499,VALID,195.0,VALID,0.577,
2011-07-17, 01:15:04,VALID,1011.126,VALID,0.0,VALID,103.924,VALID,0.0,VALID,23.499,VALID,195.0,VALID,0.412,
2011-07-17, 01:16:04,VALID,1011.095,VALID,0.0,VALID,103.939,VALID,0.0,VALID,23.48,VALID,184.0,VALID,0.917,
2011-07-17, 01:17:04,VALID,1011.089,VALID,0.0,VALID,103.947,VALID,0.0,VALID,23.48,VALID,197.0,VALID,0.531,
2011-07-17, 01:18:04,VALID,1011.076,VALID,0.0,VALID,104.0,VALID,0.0,VALID,23.46,VALID,200.0,VALID,0.312,
2011-07-17, 01:19:04,VALID,1011.071,VALID,0.0,VALID,104.0,VALID,0.0,VALID,23.46,VALID,213.0,VALID,0.555,
2011-07-17, 01:20:04,VALID,1011.079,VALID,0.0,VALID,104.0,VALID,0.0,VALID,23.441,VALID,228.0,VALID,0.34,
2011-07-17, 01:21:04,VALID,1011.064,VALID,0.0,VALID,104.0,VALID,0.0,VALID,23.46,VALID,241.0,VALID,0.663,
2011-07-17, 01:22:04,VALID,1011.052,VALID,0.0,VALID,104.0,VALID,0.0,VALID,23.419,VALID,197.0,VALID,0.52,
2011-07-17, 01:23:04,VALID,1011.027,VALID,0.0,VALID,104.0,VALID,0.0,VALID,23.46,VALID,209.0,VALID,0.668,
2011-07-17, 01:24:04,VALID,1011.072,VALID,0.0,VALID,104.0,VALID,0.0,VALID,23.481,VALID,231.0,VALID,1.083,
2011-07-17, 01:25:04,VALID,1011.071,VALID,0.0,VALID,104.0,VALID,0.0,VALID,23.441,VALID,232.0,VALID,0.914,
2011-07-17, 01:26:04,VALID,1011.083,VALID,0.0,VALID,104.0,VALID,0.0,VALID,23.439,VALID,208.0,VALID,0.764,
2011-07-17, 01:27:04,VALID,1011.054,VALID,0.0,VALID,104.0,VALID,0.0,VALID,23.441,VALID,214.0,VALID,0.932,
2011-07-17, 01:28:04,VALID,1011.041,VALID,0.0,VALID,104.0,VALID,0.106,VALID,23.441,VALID,236.0,VALID,0.753,
2011-07-17, 01:29:04,VALID,1011.058,VALID,0.0,VALID,104.0,VALID,0.0,VALID,23.441,VALID,201.0,VALID,0.883,
2011-07-17, 01:30:04,VALID,1011.046,VALID,0.0,VALID,104.0,VALID,0.0,VALID,23.421,VALID,208.0,VALID,1.023,
2011-07-17, 01:31:04,VALID,1011.033,VALID,0.0,VALID,104.0,VALID,0.0,VALID,23.4,VALID,260.0,VALID,0.528,
2011-07-17, 01:32:04,VALID,1011.079,VALID,0.0,VALID,104.0,VALID,0.0,VALID,23.441,VALID,244.0,VALID,0.498,
2011-07-17, 01:33:04,VALID,1011.041,VALID,0.0,VALID,104.0,VALID,0.0,VALID,23.442,VALID,279.0,VALID,0.087,
2011-07-17, 01:34:04,VALID,1011.018,VALID,0.0,VALID,104.0,VALID,0.0,VALID,23.441,VALID,250.0,VALID,0.462,
2011-07-17, 01:35:04,VALID,1011.045,VALID,0.0,VALID,104.0,VALID,0.0,VALID,23.441,VALID,254.0,VALID,0.413,
2011-07-17, 01:36:04,VALID,1011.014,VALID,0.0,VALID,104.0,VALID,0.0,VALID,23.441,VALID,236.0,VALID,0.628,
2011-07-17, 01:37:04,VALID,1011.012,VALID,0.0,VALID,104.0,VALID,0.0,VALID,23.402,VALID,243.0,VALID,0.952,
2011-07-17, 01:38:04,VALID,1010.999,VALID,0.0,VALID,103.977,VALID,0.0,VALID,23.402,VALID,272.0,VALID,0.43,
2011-07-17, 01:39:04,VALID,1011.007,VALID,0.0,VALID,103.901,VALID,0.0,VALID,23.402,VALID,193.0,VALID,0.307,
2011-07-17, 01:40:04,VALID,1011.007,VALID,0.0,VALID,103.878,VALID,0.0,VALID,23.442,VALID,274.0,VALID,1.182,
2011-07-17, 01:41:04,VALID,1010.965,VALID,0.0,VALID,103.809,VALID,0.0,VALID,23.421,VALID,295.0,VALID,0.572,
2011-07-17, 01:42:04,VALID,1010.961,VALID,0.0,VALID,103.695,VALID,0.0,VALID,23.402,VALID,260.0,VALID,0.651,
2011-07-17, 01:43:04,VALID,1010.93,VALID,0.0,VALID,103.649,VALID,0.0,VALID,23.402,VALID,251.0,VALID,0.365,
2011-07-17, 01:44:04,VALID,1010.937,VALID,0.0,VALID,103.565,VALID,0.0,VALID,23.363,VALID,165.0,VALID,0.367,
2011-07-17, 01:45:04,VALID,1010.919,VALID,0.0,VALID,103.466,VALID,0.0,VALID,23.343,VALID,307.0,VALID,1.057,
2011-07-17, 01:46:04,VALID,1010.884,VALID,0.0,VALID,103.298,VALID,0.0,VALID,23.324,VALID,270.0,VALID,0.93,
2011-07-17, 01:47:04,VALID,1010.859,VALID,0.0,VALID,103.215,VALID,0.0,VALID,23.324,VALID,300.0,VALID,0.983,
2011-07-17, 01:48:04,VALID,1010.864,VALID,0.0,VALID,103.077,VALID,0.106,VALID,23.324,VALID,268.0,VALID,0.587,
2011-07-17, 01:49:04,VALID,1010.9,VALID,0.0,VALID,103.115,VALID,0.0,VALID,23.324,VALID,305.0,VALID,0.935,
2011-07-17, 01:50:04,VALID,1010.881,VALID,0.0,VALID,103.009,VALID,0.0,VALID,23.304,VALID,291.0,VALID,0.552,
2011-07-17, 01:51:04,VALID,1010.863,VALID,0.0,VALID,102.986,VALID,0.0,VALID,23.285,VALID,276.0,VALID,0.791,
2011-07-17, 01:52:04,VALID,1010.877,VALID,0.0,VALID,102.879,VALID,0.0,VALID,23.265,VALID,299.0,VALID,1.033,
2011-07-17, 01:53:04,VALID,1010.894,VALID,0.0,VALID,102.849,VALID,0.0,VALID,23.287,VALID,270.0,VALID,0.431,
2011-07-17, 01:54:04,VALID,1010.868,VALID,0.0,VALID,102.902,VALID,0.0,VALID,23.285,VALID,304.0,VALID,0.277,
2011-07-17, 01:55:04,VALID,1010.854,VALID,0.0,VALID,102.894,VALID,0.0,VALID,23.246,VALID,297.0,VALID,0.911,
2011-07-17, 01:56:04,VALID,1010.848,VALID,0.0,VALID,102.955,VALID,0.0,VALID,23.244,VALID,323.0,VALID,0.989,
2011-07-17, 01:57:04,VALID,1010.84,VALID,0.0,VALID,103.024,VALID,0.0,VALID,23.246,VALID,317.0,VALID,0.462,
2011-07-17, 01:58:04,VALID,1010.831,VALID,0.0,VALID,103.009,VALID,0.0,VALID,23.246,VALID,316.0,VALID,0.279,
2011-07-17, 01:59:04,VALID,1010.797,VALID,0.0,VALID,103.032,VALID,0.0,VALID,23.246,VALID,256.0,VALID,1.011,
2011-07-17, 02:00:04,VALID,1010.776,VALID,0.0,VALID,103.077,VALID,0.0,VALID,23.246,VALID,311.0,VALID,0.657,
2011-07-17, 02:01:04,VALID,1010.772,VALID,0.0,VALID,103.161,VALID,0.0,VALID,23.246,VALID,314.0,VALID,0.13,
2011-07-17, 02:02:04,VALID,1010.727,VALID,0.0,VALID,103.176,VALID,0.0,VALID,23.248,VALID,301.0,VALID,0.729,
2011-07-17, 02:03:04,VALID,1010.715,VALID,0.0,VALID,103.154,VALID,0.0,VALID,23.226,VALID,261.0,VALID,0.314,
2011-07-17, 02:04:04,VALID,1010.711,VALID,0.0,VALID,103.192,VALID,0.0,VALID,23.226,VALID,282.0,VALID,0.59,
2011-07-17, 02:05:04,VALID,1010.681,VALID,0.0,VALID,103.298,VALID,0.0,VALID,23.226,VALID,282.0,VALID,0.195,
2011-07-17, 02:06:04,VALID,1010.68,VALID,0.0,VALID,103.321,VALID,0.0,VALID,23.226,VALID,282.0,VALID,0.005,
2011-07-17, 02:07:04,VALID,1010.67,VALID,0.0,VALID,103.352,VALID,0.0,VALID,23.207,VALID,259.0,VALID,0.135,
2011-07-17, 02:08:04,VALID,1010.673,VALID,0.0,VALID,103.42,VALID,0.0,VALID,23.187,VALID,271.0,VALID,0.552,
2011-07-17, 02:09:04,VALID,1010.658,VALID,0.0,VALID,103.497,VALID,0.0,VALID,23.187,VALID,223.0,VALID,0.706,
2011-07-17, 02:10:04,VALID,1010.67,VALID,0.0,VALID,103.512,VALID,0.0,VALID,23.187,VALID,214.0,VALID,0.709,
2011-07-17, 02:11:04,VALID,1010.667,VALID,0.0,VALID,103.512,VALID,0.0,VALID,23.189,VALID,212.0,VALID,0.711,
2011-07-17, 02:12:04,VALID,1010.647,VALID,0.0,VALID,103.573,VALID,0.0,VALID,23.168,VALID,212.0,VALID,0.48,
2011-07-17, 02:13:04,VALID,1010.641,VALID,0.0,VALID,103.619,VALID,0.0,VALID,23.207,VALID,212.0,VALID,0.204,
2011-07-17, 02:14:04,VALID,1010.63,VALID,0.0,VALID,103.68,VALID,0.0,VALID,23.187,VALID,212.0,VALID,0.019,
2011-07-17, 02:15:04,VALID,1010.632,VALID,0.0,VALID,103.756,VALID,0.0,VALID,23.187,VALID,212.0,VALID,0.0,
2011-07-17, 02:16:04,VALID,1010.59,VALID,0.0,VALID,103.771,VALID,0.0,VALID,23.187,VALID,212.0,VALID,0.0,
2011-07-17, 02:17:04,VALID,1010.544,VALID,0.0,VALID,103.764,VALID,0.0,VALID,23.168,VALID,212.0,VALID,0.0,
2011-07-17, 02:18:05,VALID,1010.586,VALID,0.0,VALID,103.771,VALID,0.0,VALID,23.189,VALID,212.0,VALID,0.001,
2011-07-17, 02:19:05,VALID,1010.54,VALID,0.0,VALID,103.863,VALID,0.0,VALID,23.168,VALID,212.0,VALID,0.272,
2011-07-17, 02:20:05,VALID,1010.527,VALID,0.0,VALID,103.939,VALID,0.0,VALID,23.187,VALID,212.0,VALID,0.257,
2011-07-17, 02:21:05,VALID,1010.535,VALID,0.0,VALID,103.954,VALID,0.0,VALID,23.189,VALID,212.0,VALID,0.195,
2011-07-17, 02:22:05,VALID,1010.537,VALID,0.0,VALID,104.0,VALID,0.0,VALID,23.168,VALID,212.0,VALID,0.307,
2011-07-17, 02:23:05,VALID,1010.557,VALID,0.0,VALID,104.0,VALID,0.0,VALID,23.148,VALID,212.0,VALID,0.034,
2011-07-17, 02:24:05,VALID,1010.533,VALID,0.0,VALID,104.0,VALID,0.0,VALID,23.17,VALID,212.0,VALID,0.002,
2011-07-17, 02:25:05,VALID,1010.518,VALID,0.0,VALID,104.0,VALID,0.0,VALID,23.148,VALID,212.0,VALID,0.183,
2011-07-17, 02:26:05,VALID,1010.495,VALID,0.0,VALID,104.0,VALID,0.0,VALID,23.148,VALID,212.0,VALID,0.0,
2011-07-17, 02:27:05,VALID,1010.483,VALID,0.0,VALID,104.0,VALID,0.0,VALID,23.148,VALID,212.0,VALID,0.0,
2011-07-17, 02:28:05,VALID,1010.484,VALID,0.0,VALID,104.0,VALID,0.0,VALID,23.129,VALID,212.0,VALID,0.043,
2011-07-17, 02:29:05,VALID,1010.474,VALID,0.0,VALID,104.0,VALID,0.0,VALID,23.129,VALID,212.0,VALID,0.049,
2011-07-17, 02:30:05,VALID,1010.459,VALID,0.0,VALID,104.0,VALID,0.0,VALID,23.129,VALID,212.0,VALID,0.0,
2011-07-17, 02:31:05,VALID,1010.458,VALID,0.0,VALID,104.0,VALID,0.0,VALID,23.129,VALID,212.0,VALID,0.0,
2011-07-17, 02:32:05,VALID,1010.438,VALID,0.0,VALID,104.0,VALID,0.0,VALID,23.129,VALID,212.0,VALID,0.062,
2011-07-17, 02:33:05,VALID,1010.441,VALID,0.0,VALID,104.0,VALID,0.0,VALID,23.129,VALID,212.0,VALID,0.326,
2011-07-17, 02:34:05,VALID,1010.425,VALID,0.0,VALID,104.0,VALID,0.0,VALID,23.088,VALID,264.0,VALID,0.38,
2011-07-17, 02:35:05,VALID,1010.437,VALID,0.0,VALID,104.0,VALID,0.0,VALID,23.109,VALID,264.0,VALID,0.126,
2011-07-17, 02:36:05,VALID,1010.399,VALID,0.0,VALID,104.0,VALID,0.0,VALID,23.109,VALID,227.0,VALID,0.355,
2011-07-17, 02:37:05,VALID,1010.433,VALID,0.0,VALID,104.0,VALID,0.106,VALID,23.148,VALID,227.0,VALID,0.17,
2011-07-17, 02:38:05,VALID,1010.424,VALID,0.0,VALID,104.0,VALID,0.0,VALID,23.148,VALID,227.0,VALID,0.229,
2011-07-17, 02:39:05,VALID,1010.407,VALID,0.5,VALID,104.0,VALID,0.106,VALID,23.127,VALID,227.0,VALID,0.133,
2011-07-17, 02:40:05,VALID,1010.374,VALID,0.0,VALID,104.0,VALID,0.106,VALID,23.127,VALID,256.0,VALID,0.336,
2011-07-17, 02:41:05,VALID,1010.377,VALID,0.0,VALID,104.0,VALID,0.106,VALID,23.148,VALID,257.0,VALID,0.32,
2011-07-17, 02:42:05,VALID,1010.385,VALID,0.0,VALID,104.0,VALID,0.106,VALID,23.108,VALID,256.0,VALID,0.311,
2011-07-17, 02:43:05,VALID,1010.342,VALID,0.5,VALID,104.0,VALID,0.106,VALID,23.129,VALID,333.0,VALID,0.927,
2011-07-17, 02:44:05,VALID,1010.356,VALID,0.0,VALID,104.0,VALID,0.0,VALID,23.129,VALID,212.0,VALID,0.529,
2011-07-17, 02:45:05,VALID,1010.351,VALID,0.0,VALID,104.0,VALID,0.0,VALID,23.109,VALID,214.0,VALID,0.649,
2011-07-17, 02:46:05,VALID,1010.377,VALID,0.0,VALID,104.0,VALID,0.106,VALID,23.109,VALID,214.0,VALID,0.4,
2011-07-17, 02:47:05,VALID,1010.352,VALID,0.5,VALID,104.0,VALID,0.0,VALID,23.109,VALID,212.0,VALID,0.65,
2011-07-17, 02:48:05,VALID,1010.339,VALID,0.0,VALID,104.0,VALID,0.0,VALID,23.049,VALID,225.0,VALID,0.915,
2011-07-17, 02:49:05,VALID,1010.309,VALID,0.0,VALID,104.0,VALID,0.106,VALID,23.051,VALID,231.0,VALID,0.949,
2011-07-17, 02:50:05,VALID,1010.286,VALID,0.0,VALID,104.0,VALID,0.0,VALID,23.032,VALID,213.0,VALID,0.811,
2011-07-17, 02:51:05,VALID,1010.297,VALID,0.0,VALID,104.0,VALID,0.0,VALID,23.051,VALID,232.0,VALID,0.442,
2011-07-17, 02:52:05,VALID,1010.269,VALID,0.0,VALID,104.0,VALID,0.0,VALID,23.051,VALID,246.0,VALID,0.597,
2011-07-17, 02:53:05,VALID,1010.251,VALID,0.0,VALID,104.0,VALID,0.0,VALID,23.012,VALID,199.0,VALID,0.559,
2011-07-17, 02:54:05,VALID,1010.264,VALID,0.5,VALID,104.0,VALID,0.0,VALID,23.012,VALID,198.0,VALID,0.598,
2011-07-17, 02:55:05,VALID,1010.242,VALID,0.0,VALID,103.985,VALID,0.0,VALID,22.973,VALID,214.0,VALID,0.81,
2011-07-17, 02:56:05,VALID,1010.249,VALID,0.0,VALID,103.947,VALID,0.106,VALID,22.993,VALID,201.0,VALID,0.573,
2011-07-17, 02:57:05,VALID,1010.257,VALID,0.0,VALID,103.97,VALID,0.0,VALID,22.973,VALID,200.0,VALID,0.422,
2011-07-17, 02:58:05,VALID,1010.237,VALID,0.0,VALID,104.0,VALID,0.0,VALID,22.954,VALID,191.0,VALID,0.8,
2011-07-17, 02:59:05,VALID,1010.217,VALID,0.0,VALID,104.0,VALID,0.106,VALID,22.954,VALID,244.0,VALID,0.632,
2011-07-17, 03:00:05,VALID,1010.23,VALID,0.0,VALID,104.0,VALID,0.106,VALID,22.973,VALID,222.0,VALID,0.446,
2011-07-17, 03:01:05,VALID,1010.214,VALID,0.0,VALID,104.0,VALID,0.0,VALID,22.934,VALID,207.0,VALID,0.939,
2011-07-17, 03:02:05,VALID,1010.209,VALID,0.0,VALID,104.0,VALID,0.0,VALID,22.913,VALID,194.0,VALID,0.666,
2011-07-17, 03:03:05,VALID,1010.193,VALID,0.0,VALID,104.0,VALID,0.0,VALID,22.954,VALID,194.0,VALID,0.584,
2011-07-17, 03:04:05,VALID,1010.196,VALID,0.5,VALID,104.0,VALID,0.0,VALID,22.954,VALID,218.0,VALID,0.54,
2011-07-17, 03:05:05,VALID,1010.202,VALID,0.0,VALID,104.0,VALID,0.0,VALID,22.954,VALID,217.0,VALID,1.09,
2011-07-17, 03:06:05,VALID,1010.186,VALID,0.0,VALID,104.0,VALID,0.0,VALID,22.994,VALID,221.0,VALID,0.584,
2011-07-17, 03:07:05,VALID,1010.196,VALID,0.0,VALID,104.0,VALID,0.0,VALID,22.973,VALID,224.0,VALID,0.198,
2011-07-17, 03:08:05,VALID,1010.167,VALID,0.0,VALID,104.0,VALID,0.0,VALID,22.954,VALID,224.0,VALID,0.0,
2011-07-17, 03:09:05,VALID,1010.153,VALID,0.0,VALID,104.0,VALID,0.0,VALID,22.994,VALID,224.0,VALID,0.001,
2011-07-17, 03:10:05,VALID,1010.149,VALID,0.0,VALID,104.0,VALID,0.106,VALID,22.973,VALID,218.0,VALID,0.746,
2011-07-17, 03:11:05,VALID,1010.132,VALID,0.0,VALID,104.0,VALID,0.0,VALID,22.993,VALID,223.0,VALID,0.573,
2011-07-17, 03:12:05,VALID,1010.104,VALID,0.5,VALID,104.0,VALID,0.0,VALID,22.993,VALID,227.0,VALID,0.964,
2011-07-17, 03:13:05,VALID,1010.086,VALID,0.0,VALID,104.0,VALID,0.0,VALID,22.993,VALID,204.0,VALID,0.82,
2011-07-17, 03:14:05,VALID,1010.055,VALID,0.0,VALID,104.0,VALID,0.0,VALID,22.973,VALID,214.0,VALID,0.774,
2011-07-17, 03:15:05,VALID,1010.042,VALID,0.0,VALID,104.0,VALID,0.0,VALID,22.993,VALID,196.0,VALID,0.817,
2011-07-17, 03:16:05,VALID,1010.063,VALID,0.0,VALID,104.0,VALID,0.0,VALID,22.993,VALID,202.0,VALID,0.921,
2011-07-17, 03:17:05,VALID,1010.061,VALID,0.5,VALID,104.0,VALID,0.0,VALID,22.993,VALID,203.0,VALID,0.788,
2011-07-17, 03:18:05,VALID,1010.043,VALID,0.0,VALID,104.0,VALID,0.0,VALID,22.973,VALID,192.0,VALID,0.814,
2011-07-17, 03:19:05,VALID,1010.051,VALID,0.0,VALID,104.0,VALID,0.0,VALID,22.973,VALID,190.0,VALID,1.141,
2011-07-17, 03:20:05,VALID,1010.073,VALID,0.0,VALID,104.0,VALID,0.0,VALID,22.993,VALID,205.0,VALID,0.835,
2011-07-17, 03:21:05,VALID,1010.046,VALID,0.0,VALID,104.0,VALID,0.0,VALID,23.014,VALID,201.0,VALID,0.973,
2011-07-17, 03:22:05,VALID,1010.039,VALID,0.5,VALID,104.0,VALID,0.0,VALID,22.993,VALID,202.0,VALID,1.454,
2011-07-17, 03:23:05,VALID,1010.015,VALID,0.0,VALID,104.0,VALID,0.106,VALID,22.993,VALID,207.0,VALID,1.08,
2011-07-17, 03:24:05,VALID,1010.0,VALID,0.0,VALID,104.0,VALID,0.0,VALID,22.993,VALID,193.0,VALID,1.136,
2011-07-17, 03:25:05,VALID,1009.986,VALID,0.0,VALID,104.0,VALID,0.0,VALID,22.993,VALID,198.0,VALID,1.222,
2011-07-17, 03:26:05,VALID,1009.976,VALID,0.5,VALID,104.0,VALID,0.0,VALID,22.994,VALID,183.0,VALID,1.144,
2011-07-17, 03:27:05,VALID,1009.945,VALID,0.0,VALID,104.0,VALID,0.0,VALID,22.973,VALID,180.0,VALID,0.998,
2011-07-17, 03:28:05,VALID,1009.937,VALID,0.0,VALID,104.0,VALID,0.0,VALID,22.954,VALID,181.0,VALID,1.349,
2011-07-17, 03:29:05,VALID,1009.927,VALID,0.0,VALID,104.0,VALID,0.0,VALID,22.954,VALID,195.0,VALID,0.916,
2011-07-17, 03:30:05,VALID,1009.917,VALID,0.0,VALID,104.0,VALID,0.0,VALID,22.934,VALID,196.0,VALID,1.372,
2011-07-17, 03:31:05,VALID,1009.893,VALID,0.0,VALID,104.0,VALID,0.0,VALID,22.934,VALID,174.0,VALID,1.474,
2011-07-17, 03:32:05,VALID,1009.913,VALID,0.5,VALID,104.0,VALID,0.0,VALID,22.934,VALID,197.0,VALID,1.21,
2011-07-17, 03:33:05,VALID,1009.869,VALID,0.0,VALID,104.0,VALID,0.106,VALID,22.934,VALID,222.0,VALID,1.341,
2011-07-17, 03:34:05,VALID,1009.872,VALID,0.0,VALID,104.0,VALID,0.106,VALID,22.954,VALID,195.0,VALID,0.885,
2011-07-17, 03:35:05,VALID,1009.837,VALID,0.0,VALID,104.0,VALID,0.106,VALID,22.934,VALID,187.0,VALID,0.678,
2011-07-17, 03:36:05,VALID,1009.828,VALID,0.0,VALID,104.0,VALID,0.106,VALID,22.913,VALID,192.0,VALID,0.756,
2011-07-17, 03:37:05,VALID,1009.817,VALID,0.0,VALID,104.0,VALID,0.0,VALID,22.934,VALID,214.0,VALID,0.548,
2011-07-17, 03:38:05,VALID,1009.782,VALID,0.0,VALID,104.0,VALID,0.106,VALID,22.934,VALID,219.0,VALID,1.09,
2011-07-17, 03:39:05,VALID,1009.763,VALID,0.0,VALID,104.0,VALID,0.0,VALID,22.934,VALID,194.0,VALID,0.789,
2011-07-17, 03:40:05,VALID,1009.726,VALID,0.0,VALID,104.0,VALID,0.0,VALID,22.915,VALID,215.0,VALID,1.491,